Year,Month,Day,Hour,Minute,Value (Times are PST for temperature in C)
2008,05,24,00,00,16.60
2008,05,24,00,01,16.60
2008,05,24,00,02,16.70
2008,05,24,00,03,16.70
2008,05,24,00,04,16.70
2008,05,24,00,05,16.70
2008,05,24,00,06,16.70
2008,05,24,00,07,16.70
2008,05,24,00,08,16.70
2008,05,24,00,09,16.80
2008,05,24,00,10,16.80
2008,05,24,00,11,16.80
2008,05,24,00,12,16.80
2008,05,24,00,13,16.90
2008,05,24,00,14,16.80
2008,05,24,00,15,16.80
2008,05,24,00,16,16.70
2008,05,24,00,17,16.70
2008,05,24,00,18,16.60
2008,05,24,00,19,16.60
2008,05,24,00,20,16.60
2008,05,24,00,21,16.50
2008,05,24,00,22,16.40
2008,05,24,00,23,16.40
2008,05,24,00,24,16.40
2008,05,24,00,25,16.40
2008,05,24,00,26,16.30
2008,05,24,00,27,16.20
2008,05,24,00,28,16.10
2008,05,24,00,29,16.10
2008,05,24,00,30,16.10
2008,05,24,00,31,16.10
2008,05,24,00,32,15.90
2008,05,24,00,33,15.80
2008,05,24,00,34,15.80
2008,05,24,00,35,15.70
2008,05,24,00,36,15.60
2008,05,24,00,37,15.50
2008,05,24,00,38,15.40
2008,05,24,00,39,15.40
2008,05,24,00,40,15.40
2008,05,24,00,41,15.50
2008,05,24,00,42,15.60
2008,05,24,00,43,15.70
2008,05,24,00,44,15.80
2008,05,24,00,45,15.80
2008,05,24,00,46,15.80
2008,05,24,00,47,15.90
2008,05,24,00,48,16.00
2008,05,24,00,49,16.10
2008,05,24,00,50,16.10
2008,05,24,00,51,16.10
2008,05,24,00,52,16.10
2008,05,24,00,53,16.10
2008,05,24,00,54,16.10
2008,05,24,00,55,16.10
2008,05,24,00,56,16.10
2008,05,24,00,57,16.10
2008,05,24,00,58,16.20
2008,05,24,00,59,16.20
2008,05,24,01,00,16.30
2008,05,24,01,01,16.30
2008,05,24,01,02,16.20
2008,05,24,01,03,16.10
2008,05,24,01,04,16.10
2008,05,24,01,05,16.10
2008,05,24,01,06,16.10
2008,05,24,01,07,16.00
2008,05,24,01,08,15.90
2008,05,24,01,09,15.80
2008,05,24,01,10,15.80
2008,05,24,01,11,15.80
2008,05,24,01,12,15.70
2008,05,24,01,13,15.70
2008,05,24,01,14,15.70
2008,05,24,01,15,15.80
2008,05,24,01,16,15.80
2008,05,24,01,17,15.80
2008,05,24,01,18,15.80
2008,05,24,01,19,15.80
2008,05,24,01,20,15.80
2008,05,24,01,21,15.70
2008,05,24,01,22,15.60
2008,05,24,01,23,15.60
2008,05,24,01,24,15.60
2008,05,24,01,25,15.70
2008,05,24,01,26,15.70
2008,05,24,01,27,15.80
2008,05,24,01,28,15.80
2008,05,24,01,29,15.90
2008,05,24,01,30,15.90
2008,05,24,01,31,16.10
2008,05,24,01,32,16.10
2008,05,24,01,33,16.00
2008,05,24,01,34,15.90
2008,05,24,01,35,15.80
2008,05,24,01,36,15.60
2008,05,24,01,37,15.40
2008,05,24,01,38,15.30
2008,05,24,01,39,15.30
2008,05,24,01,40,15.20
2008,05,24,01,41,15.10
2008,05,24,01,42,15.10
2008,05,24,01,43,15.10
2008,05,24,01,44,15.20
2008,05,24,01,45,15.30
2008,05,24,01,46,15.50
2008,05,24,01,47,15.60
2008,05,24,01,48,15.70
2008,05,24,01,49,15.80
2008,05,24,01,50,15.80
2008,05,24,01,51,15.80
2008,05,24,01,52,15.90
2008,05,24,01,53,15.90
2008,05,24,01,54,16.00
2008,05,24,01,55,16.10
2008,05,24,01,56,16.10
2008,05,24,01,57,15.90
2008,05,24,01,58,15.90
2008,05,24,01,59,15.80
2008,05,24,02,00,15.80
2008,05,24,02,01,15.80
2008,05,24,02,02,15.80
2008,05,24,02,03,15.80
2008,05,24,02,04,15.80
2008,05,24,02,05,15.80
2008,05,24,02,06,15.90
2008,05,24,02,07,15.90
2008,05,24,02,08,16.10
2008,05,24,02,09,16.10
2008,05,24,02,10,16.10
2008,05,24,02,11,16.20
2008,05,24,02,12,16.30
2008,05,24,02,13,16.40
2008,05,24,02,14,16.40
2008,05,24,02,15,16.60
2008,05,24,02,16,16.70
2008,05,24,02,17,16.70
2008,05,24,02,18,16.70
2008,05,24,02,19,16.80
2008,05,24,02,20,16.90
2008,05,24,02,21,16.90
2008,05,24,02,22,17.00
2008,05,24,02,23,17.00
2008,05,24,02,24,17.10
2008,05,24,02,25,17.20
2008,05,24,02,26,17.30
2008,05,24,02,27,17.40
2008,05,24,02,28,17.50
2008,05,24,02,29,17.60
2008,05,24,02,30,17.60
2008,05,24,02,31,17.70
2008,05,24,02,32,17.70
2008,05,24,02,33,17.70
2008,05,24,02,34,17.70
2008,05,24,02,35,17.70
2008,05,24,02,36,17.70
2008,05,24,02,37,17.80
2008,05,24,02,38,17.80
2008,05,24,02,39,17.80
2008,05,24,02,40,17.80
2008,05,24,02,41,17.80
2008,05,24,02,42,17.80
2008,05,24,02,43,17.80
2008,05,24,02,44,17.80
2008,05,24,02,45,17.90
2008,05,24,02,46,17.90
2008,05,24,02,47,17.90
2008,05,24,02,48,17.90
2008,05,24,02,49,17.90
2008,05,24,02,50,17.90
2008,05,24,02,51,17.90
2008,05,24,02,52,17.90
2008,05,24,02,53,17.90
2008,05,24,02,54,17.90
2008,05,24,02,55,17.90
2008,05,24,02,56,17.80
2008,05,24,02,57,17.80
2008,05,24,02,58,17.80
2008,05,24,02,59,17.90
2008,05,24,03,00,17.90
2008,05,24,03,01,17.90
2008,05,24,03,02,17.90
2008,05,24,03,03,17.90
2008,05,24,03,04,17.90
2008,05,24,03,05,17.90
2008,05,24,03,06,17.90
2008,05,24,03,07,17.90
2008,05,24,03,08,17.90
2008,05,24,03,09,17.90
2008,05,24,03,10,17.90
2008,05,24,03,11,17.90
2008,05,24,03,12,18.00
2008,05,24,03,13,18.10
2008,05,24,03,14,18.10
2008,05,24,03,15,18.20
2008,05,24,03,16,18.20
2008,05,24,03,17,18.20
2008,05,24,03,18,18.20
2008,05,24,03,19,18.20
2008,05,24,03,20,18.20
2008,05,24,03,21,18.20
2008,05,24,03,22,18.20
2008,05,24,03,23,18.20
2008,05,24,03,24,18.20
2008,05,24,03,25,18.20
2008,05,24,03,26,18.10
2008,05,24,03,27,18.10
2008,05,24,03,28,18.10
2008,05,24,03,29,18.20
2008,05,24,03,30,18.20
2008,05,24,03,31,18.20
2008,05,24,03,32,18.20
2008,05,24,03,33,18.20
2008,05,24,03,34,18.20
2008,05,24,03,35,18.20
2008,05,24,03,36,18.20
2008,05,24,03,37,18.30
2008,05,24,03,38,18.20
2008,05,24,03,39,18.20
2008,05,24,03,40,18.20
2008,05,24,03,41,18.20
2008,05,24,03,42,18.20
2008,05,24,03,43,18.20
2008,05,24,03,44,18.20
2008,05,24,03,45,18.20
2008,05,24,03,46,18.20
2008,05,24,03,47,18.20
2008,05,24,03,48,18.20
2008,05,24,03,49,18.10
2008,05,24,03,50,18.10
2008,05,24,03,51,18.10
2008,05,24,03,52,18.00
2008,05,24,03,53,17.90
2008,05,24,03,54,17.90
2008,05,24,03,55,17.90
2008,05,24,03,56,17.90
2008,05,24,03,57,17.90
2008,05,24,03,58,17.90
2008,05,24,03,59,17.90
2008,05,24,04,00,17.80
2008,05,24,04,01,17.70
2008,05,24,04,02,17.70
2008,05,24,04,03,17.60
2008,05,24,04,04,17.50
2008,05,24,04,05,17.50
2008,05,24,04,06,17.40
2008,05,24,04,07,17.30
2008,05,24,04,08,17.30
2008,05,24,04,09,17.30
2008,05,24,04,10,17.30
2008,05,24,04,11,17.30
2008,05,24,04,12,17.30
2008,05,24,04,13,17.30
2008,05,24,04,14,17.30
2008,05,24,04,15,17.30
2008,05,24,04,16,17.30
2008,05,24,04,17,17.30
2008,05,24,04,18,17.30
2008,05,24,04,19,17.40
2008,05,24,04,20,17.40
2008,05,24,04,21,17.40
2008,05,24,04,22,17.40
2008,05,24,04,23,17.40
2008,05,24,04,24,17.40
2008,05,24,04,25,17.40
2008,05,24,04,26,17.40
2008,05,24,04,27,17.50
2008,05,24,04,28,17.50
2008,05,24,04,29,17.50
2008,05,24,04,30,17.50
2008,05,24,04,31,17.50
2008,05,24,04,32,17.60
2008,05,24,04,33,17.60
2008,05,24,04,34,17.50
2008,05,24,04,35,17.50
2008,05,24,04,36,17.40
2008,05,24,04,37,17.40
2008,05,24,04,38,17.30
2008,05,24,04,39,17.30
2008,05,24,04,40,17.20
2008,05,24,04,41,17.20
2008,05,24,04,42,17.20
2008,05,24,04,43,17.10
2008,05,24,04,44,17.00
2008,05,24,04,45,16.90
2008,05,24,04,46,16.80
2008,05,24,04,47,16.70
2008,05,24,04,48,16.60
2008,05,24,04,49,16.50
2008,05,24,04,50,16.40
2008,05,24,04,51,16.30
2008,05,24,04,52,16.20
2008,05,24,04,53,16.20
2008,05,24,04,54,16.10
2008,05,24,04,55,16.10
2008,05,24,04,56,16.00
2008,05,24,04,57,15.90
2008,05,24,04,58,15.80
2008,05,24,04,59,15.80
2008,05,24,05,00,15.70
2008,05,24,05,01,15.70
2008,05,24,05,02,15.60
2008,05,24,05,03,15.60
2008,05,24,05,04,15.60
2008,05,24,05,05,15.50
2008,05,24,05,06,15.50
2008,05,24,05,07,15.50
2008,05,24,05,08,15.40
2008,05,24,05,09,15.30
2008,05,24,05,10,15.30
2008,05,24,05,11,15.30
2008,05,24,05,12,15.30
2008,05,24,05,13,15.20
2008,05,24,05,14,15.20
2008,05,24,05,15,15.20
2008,05,24,05,16,15.10
2008,05,24,05,17,15.10
2008,05,24,05,18,15.10
2008,05,24,05,19,15.10
2008,05,24,05,20,15.10
2008,05,24,05,21,15.00
2008,05,24,05,22,15.00
2008,05,24,05,23,15.00
2008,05,24,05,24,14.90
2008,05,24,05,25,14.80
2008,05,24,05,26,14.80
2008,05,24,05,27,14.80
2008,05,24,05,28,14.80
2008,05,24,05,29,14.70
2008,05,24,05,30,14.70
2008,05,24,05,31,14.60
2008,05,24,05,32,14.60
2008,05,24,05,33,14.50
2008,05,24,05,34,14.50
2008,05,24,05,35,14.40
2008,05,24,05,36,14.40
2008,05,24,05,37,14.30
2008,05,24,05,38,14.30
2008,05,24,05,39,14.30
2008,05,24,05,40,14.30
2008,05,24,05,41,14.30
2008,05,24,05,42,14.40
2008,05,24,05,43,14.40
2008,05,24,05,44,14.40
2008,05,24,05,45,14.40
2008,05,24,05,46,14.40
2008,05,24,05,47,14.40
2008,05,24,05,48,14.40
2008,05,24,05,49,14.40
2008,05,24,05,50,14.30
2008,05,24,05,51,14.30
2008,05,24,05,52,14.20
2008,05,24,05,53,14.20
2008,05,24,05,54,14.20
2008,05,24,05,55,14.10
2008,05,24,05,56,14.10
2008,05,24,05,57,14.00
2008,05,24,05,58,14.00
2008,05,24,05,59,14.00
2008,05,24,06,00,14.00
2008,05,24,06,01,14.00
2008,05,24,06,02,14.10
2008,05,24,06,03,14.10
2008,05,24,06,04,14.10
2008,05,24,06,05,14.10
2008,05,24,06,06,14.10
2008,05,24,06,07,14.10
2008,05,24,06,08,14.10
2008,05,24,06,09,14.20
2008,05,24,06,10,14.20
2008,05,24,06,11,14.30
2008,05,24,06,12,14.40
2008,05,24,06,13,14.40
2008,05,24,06,14,14.40
2008,05,24,06,15,14.40
2008,05,24,06,16,14.40
2008,05,24,06,17,14.40
2008,05,24,06,18,14.40
2008,05,24,06,19,14.40
2008,05,24,06,20,14.40
2008,05,24,06,21,14.30
2008,05,24,06,22,14.30
2008,05,24,06,23,14.30
2008,05,24,06,24,14.20
2008,05,24,06,25,14.20
2008,05,24,06,26,14.20
2008,05,24,06,27,14.20
2008,05,24,06,28,14.20
2008,05,24,06,29,14.20
2008,05,24,06,30,14.20
2008,05,24,06,31,14.20
2008,05,24,06,32,14.20
2008,05,24,06,33,14.20
2008,05,24,06,34,14.20
2008,05,24,06,35,14.20
2008,05,24,06,36,14.20
2008,05,24,06,37,14.20
2008,05,24,06,38,14.20
2008,05,24,06,39,14.20
2008,05,24,06,40,14.30
2008,05,24,06,41,14.30
2008,05,24,06,42,14.30
2008,05,24,06,43,14.40
2008,05,24,06,44,14.40
2008,05,24,06,45,14.50
2008,05,24,06,46,14.50
2008,05,24,06,47,14.50
2008,05,24,06,48,14.60
2008,05,24,06,49,14.60
2008,05,24,06,50,14.60
2008,05,24,06,51,14.60
2008,05,24,06,52,14.70
2008,05,24,06,53,14.70
2008,05,24,06,54,14.70
2008,05,24,06,55,14.70
2008,05,24,06,56,14.70
2008,05,24,06,57,14.80
2008,05,24,06,58,14.80
2008,05,24,06,59,14.80
2008,05,24,07,00,14.80
2008,05,24,07,01,14.80
2008,05,24,07,02,14.80
2008,05,24,07,03,14.90
2008,05,24,07,04,15.00
2008,05,24,07,05,15.00
2008,05,24,07,06,15.10
2008,05,24,07,07,15.20
2008,05,24,07,08,15.30
2008,05,24,07,09,15.30
2008,05,24,07,10,15.50
2008,05,24,07,11,15.50
2008,05,24,07,12,15.60
2008,05,24,07,13,15.70
2008,05,24,07,14,15.80
2008,05,24,07,15,16.00
2008,05,24,07,16,16.10
2008,05,24,07,17,16.20
2008,05,24,07,18,16.30
2008,05,24,07,19,16.40
2008,05,24,07,20,16.40
2008,05,24,07,21,16.60
2008,05,24,07,22,16.70
2008,05,24,07,23,16.70
2008,05,24,07,24,16.70
2008,05,24,07,25,16.80
2008,05,24,07,26,16.80
2008,05,24,07,27,16.80
2008,05,24,07,28,16.80
2008,05,24,07,29,16.80
2008,05,24,07,30,16.80
2008,05,24,07,31,16.80
2008,05,24,07,32,16.80
2008,05,24,07,33,16.80
2008,05,24,07,34,16.70
2008,05,24,07,35,16.70
2008,05,24,07,36,16.70
2008,05,24,07,37,16.70
2008,05,24,07,38,16.70
2008,05,24,07,39,16.70
2008,05,24,07,40,16.70
2008,05,24,07,41,16.70
2008,05,24,07,42,16.70
2008,05,24,07,43,16.70
2008,05,24,07,44,16.60
2008,05,24,07,45,16.60
2008,05,24,07,46,16.60
2008,05,24,07,47,16.60
2008,05,24,07,48,16.60
2008,05,24,07,49,16.50
2008,05,24,07,50,16.40
2008,05,24,07,51,16.50
2008,05,24,07,52,16.60
2008,05,24,07,53,16.60
2008,05,24,07,54,16.60
2008,05,24,07,55,16.60
2008,05,24,07,56,16.60
2008,05,24,07,57,16.60
2008,05,24,07,58,16.60
2008,05,24,07,59,16.70
2008,05,24,08,00,16.70
2008,05,24,08,01,16.70
2008,05,24,08,02,16.70
2008,05,24,08,03,16.70
2008,05,24,08,04,16.70
2008,05,24,08,05,16.70
2008,05,24,08,06,16.70
2008,05,24,08,07,16.70
2008,05,24,08,08,16.70
2008,05,24,08,09,16.70
2008,05,24,08,10,16.70
2008,05,24,08,11,16.70
2008,05,24,08,12,16.80
2008,05,24,08,13,16.80
2008,05,24,08,14,16.80
2008,05,24,08,15,16.90
2008,05,24,08,16,16.90
2008,05,24,08,17,16.90
2008,05,24,08,18,16.90
2008,05,24,08,19,17.00
2008,05,24,08,20,17.00
2008,05,24,08,21,17.00
2008,05,24,08,22,17.00
2008,05,24,08,23,17.00
2008,05,24,08,24,17.00
2008,05,24,08,25,17.00
2008,05,24,08,26,17.00
2008,05,24,08,27,17.00
2008,05,24,08,28,17.10
2008,05,24,08,29,17.10
2008,05,24,08,30,17.10
2008,05,24,08,31,17.20
2008,05,24,08,32,17.20
2008,05,24,08,33,17.30
2008,05,24,08,34,17.30
2008,05,24,08,35,17.30
2008,05,24,08,36,17.30
2008,05,24,08,37,17.30
2008,05,24,08,38,17.30
2008,05,24,08,39,17.30
2008,05,24,08,40,17.30
2008,05,24,08,41,17.30
2008,05,24,08,42,17.30
2008,05,24,08,43,17.30
2008,05,24,08,44,17.40
2008,05,24,08,45,17.40
2008,05,24,08,46,17.50
2008,05,24,08,47,17.50
2008,05,24,08,48,17.50
2008,05,24,08,49,17.60
2008,05,24,08,50,17.60
2008,05,24,08,51,17.60
2008,05,24,08,52,17.60
2008,05,24,08,53,17.60
2008,05,24,08,54,17.60
2008,05,24,08,55,17.60
2008,05,24,08,56,17.60
2008,05,24,08,57,17.60
2008,05,24,08,58,17.60
2008,05,24,08,59,17.60
2008,05,24,09,00,17.60
2008,05,24,09,01,17.60
2008,05,24,09,02,17.70
2008,05,24,09,03,17.70
2008,05,24,09,04,17.70
2008,05,24,09,05,17.70
2008,05,24,09,06,17.70
2008,05,24,09,07,17.70
2008,05,24,09,08,17.70
2008,05,24,09,09,17.70
2008,05,24,09,10,17.70
2008,05,24,09,11,17.70
2008,05,24,09,12,17.80
2008,05,24,09,13,17.80
2008,05,24,09,14,17.80
2008,05,24,09,15,17.80
2008,05,24,09,16,17.80
2008,05,24,09,17,17.80
2008,05,24,09,18,17.80
2008,05,24,09,19,17.80
2008,05,24,09,20,17.80
2008,05,24,09,21,17.80
2008,05,24,09,22,17.70
2008,05,24,09,23,17.70
2008,05,24,09,24,17.70
2008,05,24,09,25,17.70
2008,05,24,09,26,17.70
2008,05,24,09,27,17.70
2008,05,24,09,28,17.70
2008,05,24,09,29,17.70
2008,05,24,09,30,17.70
2008,05,24,09,31,17.70
2008,05,24,09,32,17.70
2008,05,24,09,33,17.70
2008,05,24,09,34,17.80
2008,05,24,09,35,17.80
2008,05,24,09,36,17.80
2008,05,24,09,37,17.80
2008,05,24,09,38,17.80
2008,05,24,09,39,17.80
2008,05,24,09,40,17.80
2008,05,24,09,41,17.80
2008,05,24,09,42,17.80
2008,05,24,09,43,17.80
2008,05,24,09,44,17.80
2008,05,24,09,45,17.80
2008,05,24,09,46,17.80
2008,05,24,09,47,17.80
2008,05,24,09,48,17.70
2008,05,24,09,49,17.70
2008,05,24,09,50,17.70
2008,05,24,09,51,17.70
2008,05,24,09,52,17.70
2008,05,24,09,53,17.70
2008,05,24,09,54,17.70
2008,05,24,09,55,17.70
2008,05,24,09,56,17.70
2008,05,24,09,57,17.70
2008,05,24,09,58,17.70
2008,05,24,09,59,17.70
2008,05,24,10,00,17.70
2008,05,24,10,01,17.70
2008,05,24,10,02,17.70
2008,05,24,10,03,17.70
2008,05,24,10,04,17.80
2008,05,24,10,05,17.80
2008,05,24,10,06,17.80
2008,05,24,10,07,17.80
2008,05,24,10,08,17.80
2008,05,24,10,09,17.90
2008,05,24,10,10,17.90
2008,05,24,10,11,17.90
2008,05,24,10,12,17.90
2008,05,24,10,13,17.90
2008,05,24,10,14,17.90
2008,05,24,10,15,17.90
2008,05,24,10,16,17.90
2008,05,24,10,17,17.90
2008,05,24,10,18,17.90
2008,05,24,10,19,17.90
2008,05,24,10,20,18.10
2008,05,24,10,21,18.10
2008,05,24,10,22,18.10
2008,05,24,10,23,18.10
2008,05,24,10,24,18.10
2008,05,24,10,25,18.10
2008,05,24,10,26,18.10
2008,05,24,10,27,18.10
2008,05,24,10,28,18.10
2008,05,24,10,29,18.10
2008,05,24,10,30,18.10
2008,05,24,10,31,18.10
2008,05,24,10,32,18.10
2008,05,24,10,33,18.10
2008,05,24,10,34,18.10
2008,05,24,10,35,17.90
2008,05,24,10,36,17.90
2008,05,24,10,37,17.90
2008,05,24,10,38,17.90
2008,05,24,10,39,17.90
2008,05,24,10,40,17.90
2008,05,24,10,41,17.90
2008,05,24,10,42,17.90
2008,05,24,10,43,17.90
2008,05,24,10,44,17.80
2008,05,24,10,45,17.80
2008,05,24,10,46,17.80
2008,05,24,10,47,17.80
2008,05,24,10,48,17.80
2008,05,24,10,49,17.80
2008,05,24,10,50,17.80
2008,05,24,10,51,17.90
2008,05,24,10,52,17.90
2008,05,24,10,53,17.90
2008,05,24,10,54,17.90
2008,05,24,10,55,17.90
2008,05,24,10,56,17.90
2008,05,24,10,57,17.90
2008,05,24,10,58,17.90
2008,05,24,10,59,17.90
2008,05,24,11,00,18.00
2008,05,24,11,01,18.10
2008,05,24,11,02,18.10
2008,05,24,11,03,18.10
2008,05,24,11,04,18.10
2008,05,24,11,05,18.10
2008,05,24,11,06,18.10
2008,05,24,11,07,18.20
2008,05,24,11,08,18.20
2008,05,24,11,09,18.20
2008,05,24,11,10,18.20
2008,05,24,11,11,18.20
2008,05,24,11,12,18.20
2008,05,24,11,13,18.20
2008,05,24,11,14,18.20
2008,05,24,11,15,18.20
2008,05,24,11,16,18.20
2008,05,24,11,17,18.30
2008,05,24,11,18,18.30
2008,05,24,11,19,18.30
2008,05,24,11,20,18.30
2008,05,24,11,21,18.30
2008,05,24,11,22,18.30
2008,05,24,11,23,18.30
2008,05,24,11,24,18.30
2008,05,24,11,25,18.30
2008,05,24,11,26,18.20
2008,05,24,11,27,18.20
2008,05,24,11,28,18.20
2008,05,24,11,29,18.20
2008,05,24,11,30,18.30
2008,05,24,11,31,18.30
2008,05,24,11,32,18.30
2008,05,24,11,33,18.40
2008,05,24,11,34,18.40
2008,05,24,11,35,18.40
2008,05,24,11,36,18.50
2008,05,24,11,37,18.50
2008,05,24,11,38,18.60
2008,05,24,11,39,18.70
2008,05,24,11,40,18.70
2008,05,24,11,41,18.80
2008,05,24,11,42,18.90
2008,05,24,11,43,18.90
2008,05,24,11,44,18.90
2008,05,24,11,45,18.90
2008,05,24,11,46,18.90
2008,05,24,11,47,18.90
2008,05,24,11,48,19.10
2008,05,24,11,49,19.10
2008,05,24,11,50,19.10
2008,05,24,11,51,19.10
2008,05,24,11,52,19.10
2008,05,24,11,53,19.20
2008,05,24,11,54,19.20
2008,05,24,11,55,19.30
2008,05,24,11,56,19.30
2008,05,24,11,57,19.40
2008,05,24,11,58,19.50
2008,05,24,11,59,19.60
2008,05,24,12,00,19.70
2008,05,24,12,01,19.70
2008,05,24,12,02,19.80
2008,05,24,12,03,19.80
2008,05,24,12,04,19.90
2008,05,24,12,05,19.90
2008,05,24,12,06,20.00
2008,05,24,12,07,20.10
2008,05,24,12,08,20.10
2008,05,24,12,09,20.10
2008,05,24,12,10,20.10
2008,05,24,12,11,20.10
2008,05,24,12,12,20.10
2008,05,24,12,13,20.10
2008,05,24,12,14,20.20
2008,05,24,12,15,20.20
2008,05,24,12,16,20.20
2008,05,24,12,17,20.30
2008,05,24,12,18,20.30
2008,05,24,12,19,20.20
2008,05,24,12,20,20.20
2008,05,24,12,21,20.10
2008,05,24,12,22,20.00
2008,05,24,12,23,19.90
2008,05,24,12,24,19.90
2008,05,24,12,25,19.90
2008,05,24,12,26,19.90
2008,05,24,12,27,19.90
2008,05,24,12,28,20.10
2008,05,24,12,29,20.20
2008,05,24,12,30,20.30
2008,05,24,12,31,20.40
2008,05,24,12,32,20.50
2008,05,24,12,33,20.60
2008,05,24,12,34,20.70
2008,05,24,12,35,20.80
2008,05,24,12,36,21.00
2008,05,24,12,37,21.00
2008,05,24,12,38,21.10
2008,05,24,12,39,21.20
2008,05,24,12,40,21.30
2008,05,24,12,41,21.30
2008,05,24,12,42,21.50
2008,05,24,12,43,21.60
2008,05,24,12,44,21.60
2008,05,24,12,45,21.70
2008,05,24,12,46,21.80
2008,05,24,12,47,21.90
2008,05,24,12,48,21.90
2008,05,24,12,49,22.00
2008,05,24,12,50,22.00
2008,05,24,12,51,22.00
2008,05,24,12,52,21.90
2008,05,24,12,53,21.80
2008,05,24,12,54,21.70
2008,05,24,12,55,21.60
2008,05,24,12,56,21.50
2008,05,24,12,57,21.40
2008,05,24,12,58,21.30
2008,05,24,12,59,21.30
2008,05,24,13,00,21.30
2008,05,24,13,01,21.30
2008,05,24,13,02,21.30
2008,05,24,13,03,21.30
2008,05,24,13,04,21.30
2008,05,24,13,05,21.30
2008,05,24,13,06,21.30
2008,05,24,13,07,21.30
2008,05,24,13,08,21.40
2008,05,24,13,09,21.50
2008,05,24,13,10,21.60
2008,05,24,13,11,21.70
2008,05,24,13,12,21.80
2008,05,24,13,13,21.90
2008,05,24,13,14,21.90
2008,05,24,13,15,21.90
2008,05,24,13,16,21.90
2008,05,24,13,17,21.90
2008,05,24,13,18,21.80
2008,05,24,13,19,21.80
2008,05,24,13,20,21.80
2008,05,24,13,21,21.90
2008,05,24,13,22,22.00
2008,05,24,13,23,22.00
2008,05,24,13,24,22.10
2008,05,24,13,25,22.10
2008,05,24,13,26,22.10
2008,05,24,13,27,22.00
2008,05,24,13,28,22.00
2008,05,24,13,29,21.90
2008,05,24,13,30,21.90
2008,05,24,13,31,21.90
2008,05,24,13,32,22.00
2008,05,24,13,33,22.00
2008,05,24,13,34,22.10
2008,05,24,13,35,22.10
2008,05,24,13,36,22.20
2008,05,24,13,37,22.20
2008,05,24,13,38,22.20
2008,05,24,13,39,22.30
2008,05,24,13,40,22.30
2008,05,24,13,41,22.40
2008,05,24,13,42,22.50
2008,05,24,13,43,22.50
2008,05,24,13,44,22.50
2008,05,24,13,45,22.60
2008,05,24,13,46,22.50
2008,05,24,13,47,22.30
2008,05,24,13,48,22.20
2008,05,24,13,49,22.10
2008,05,24,13,50,22.10
2008,05,24,13,51,22.10
2008,05,24,13,52,22.00
2008,05,24,13,53,21.90
2008,05,24,13,54,21.90
2008,05,24,13,55,21.80
2008,05,24,13,56,21.70
2008,05,24,13,57,21.80
2008,05,24,13,58,21.80
2008,05,24,13,59,22.00
2008,05,24,14,00,22.10
2008,05,24,14,01,22.20
2008,05,24,14,02,22.20
2008,05,24,14,03,22.20
2008,05,24,14,04,22.20
2008,05,24,14,05,22.20
2008,05,24,14,06,22.10
2008,05,24,14,07,22.00
2008,05,24,14,08,22.00
2008,05,24,14,09,22.00
2008,05,24,14,10,22.20
2008,05,24,14,11,22.30
2008,05,24,14,12,22.40
2008,05,24,14,13,22.40
2008,05,24,14,14,22.40
2008,05,24,14,15,22.40
2008,05,24,14,16,22.40
2008,05,24,14,17,22.30
2008,05,24,14,18,22.30
2008,05,24,14,19,22.30
2008,05,24,14,20,22.40
2008,05,24,14,21,22.50
2008,05,24,14,22,22.60
2008,05,24,14,23,22.60
2008,05,24,14,24,22.50
2008,05,24,14,25,22.60
2008,05,24,14,26,22.70
2008,05,24,14,27,22.70
2008,05,24,14,28,22.80
2008,05,24,14,29,22.80
2008,05,24,14,30,22.70
2008,05,24,14,31,22.60
2008,05,24,14,32,22.60
2008,05,24,14,33,22.60
2008,05,24,14,34,22.70
2008,05,24,14,35,22.70
2008,05,24,14,36,22.80
2008,05,24,14,37,22.90
2008,05,24,14,38,22.90
2008,05,24,14,39,23.00
2008,05,24,14,40,23.10
2008,05,24,14,41,23.20
2008,05,24,14,42,23.10
2008,05,24,14,43,23.00
2008,05,24,14,44,22.90
2008,05,24,14,45,22.90
2008,05,24,14,46,22.90
2008,05,24,14,47,22.90
2008,05,24,14,48,22.90
2008,05,24,14,49,22.80
2008,05,24,14,50,22.90
2008,05,24,14,51,22.90
2008,05,24,14,52,23.10
2008,05,24,14,53,23.20
2008,05,24,14,54,23.30
2008,05,24,14,55,23.30
2008,05,24,14,56,23.30
2008,05,24,14,57,23.40
2008,05,24,14,58,23.60
2008,05,24,14,59,23.70
2008,05,24,15,00,23.70
2008,05,24,15,01,23.70
2008,05,24,15,02,23.70
2008,05,24,15,03,23.80
2008,05,24,15,04,23.90
2008,05,24,15,05,23.90
2008,05,24,15,06,23.90
2008,05,24,15,07,24.00
2008,05,24,15,08,24.10
2008,05,24,15,09,24.10
2008,05,24,15,10,24.20
2008,05,24,15,11,24.20
2008,05,24,15,12,24.20
2008,05,24,15,13,24.20
2008,05,24,15,14,24.30
2008,05,24,15,15,24.30
2008,05,24,15,16,24.30
2008,05,24,15,17,24.20
2008,05,24,15,18,24.20
2008,05,24,15,19,24.10
2008,05,24,15,20,24.10
2008,05,24,15,21,24.20
2008,05,24,15,22,24.20
2008,05,24,15,23,24.20
2008,05,24,15,24,24.20
2008,05,24,15,25,24.20
2008,05,24,15,26,24.20
2008,05,24,15,27,24.10
2008,05,24,15,28,24.10
2008,05,24,15,29,24.10
2008,05,24,15,30,24.10
2008,05,24,15,31,24.10
2008,05,24,15,32,24.10
2008,05,24,15,33,24.10
2008,05,24,15,34,24.00
2008,05,24,15,35,24.00
2008,05,24,15,36,24.10
2008,05,24,15,37,24.10
2008,05,24,15,38,24.10
2008,05,24,15,39,24.10
2008,05,24,15,40,24.10
2008,05,24,15,41,24.10
2008,05,24,15,42,24.10
2008,05,24,15,43,24.20
2008,05,24,15,44,24.20
2008,05,24,15,45,24.20
2008,05,24,15,46,24.10
2008,05,24,15,47,24.00
2008,05,24,15,48,23.90
2008,05,24,15,49,23.70
2008,05,24,15,50,23.70
2008,05,24,15,51,23.70
2008,05,24,15,52,23.70
2008,05,24,15,53,23.70
2008,05,24,15,54,23.80
2008,05,24,15,55,23.80
2008,05,24,15,56,23.90
2008,05,24,15,57,23.90
2008,05,24,15,58,23.90
2008,05,24,15,59,23.80
2008,05,24,16,00,23.80
2008,05,24,16,01,23.90
2008,05,24,16,02,23.90
2008,05,24,16,03,24.00
2008,05,24,16,04,24.10
2008,05,24,16,05,24.10
2008,05,24,16,06,24.10
2008,05,24,16,07,24.10
2008,05,24,16,08,24.10
2008,05,24,16,09,24.20
2008,05,24,16,10,24.20
2008,05,24,16,11,24.20
2008,05,24,16,12,24.20
2008,05,24,16,13,24.20
2008,05,24,16,14,24.20
2008,05,24,16,15,24.10
2008,05,24,16,16,24.10
2008,05,24,16,17,24.10
2008,05,24,16,18,24.00
2008,05,24,16,19,23.90
2008,05,24,16,20,23.90
2008,05,24,16,21,23.90
2008,05,24,16,22,23.80
2008,05,24,16,23,23.80
2008,05,24,16,24,23.90
2008,05,24,16,25,23.90
2008,05,24,16,26,23.80
2008,05,24,16,27,23.90
2008,05,24,16,28,24.00
2008,05,24,16,29,24.10
2008,05,24,16,30,24.20
2008,05,24,16,31,24.40
2008,05,24,16,32,24.40
2008,05,24,16,33,24.40
2008,05,24,16,34,24.40
2008,05,24,16,35,24.50
2008,05,24,16,36,24.50
2008,05,24,16,37,24.50
2008,05,24,16,38,24.60
2008,05,24,16,39,24.70
2008,05,24,16,40,24.80
2008,05,24,16,41,24.80
2008,05,24,16,42,24.90
2008,05,24,16,43,25.00
2008,05,24,16,44,25.00
2008,05,24,16,45,25.00
2008,05,24,16,46,25.00
2008,05,24,16,47,25.00
2008,05,24,16,48,25.10
2008,05,24,16,49,25.20
2008,05,24,16,50,25.20
2008,05,24,16,51,25.30
2008,05,24,16,52,25.30
2008,05,24,16,53,25.30
2008,05,24,16,54,25.30
2008,05,24,16,55,25.40
2008,05,24,16,56,25.50
2008,05,24,16,57,25.50
2008,05,24,16,58,25.50
2008,05,24,16,59,25.50
2008,05,24,17,00,25.40
2008,05,24,17,01,25.40
2008,05,24,17,02,25.30
2008,05,24,17,03,25.40
2008,05,24,17,04,25.40
2008,05,24,17,05,25.30
2008,05,24,17,06,25.30
2008,05,24,17,07,25.20
2008,05,24,17,08,25.00
2008,05,24,17,09,24.80
2008,05,24,17,10,24.70
2008,05,24,17,11,24.60
2008,05,24,17,12,24.50
2008,05,24,17,13,24.40
2008,05,24,17,14,24.40
2008,05,24,17,15,24.30
2008,05,24,17,16,24.30
2008,05,24,17,17,24.30
2008,05,24,17,18,24.20
2008,05,24,17,19,24.10